Location: Stara Lesna
(49.1528°N, 20.2911°E)
Time: 18:33:57
(UTC+02:00)

SL-16 R/B - Pass Details

Date: 13 July 2020
Orbit: 985 x 1007 km, 99.5° (Epoch: 11 August)

Event Time Altitude Azimuth Distance (km) Brightness Sun altitude
Exits shadow 03:25:41 13° 215° (SW) 2,533 4.0 -10.5°
Maximum altitude 03:30:07 28° 267° (W) 1,799 3.6 -10.1°
Drops below altitude 10° 03:35:24 10° 325° (NW) 2,792 5.1 -9.5°
Sets 03:38:19 0° 337° (NNW) 3,748 5.9 -9.2°
